[[{"header":{"parameterUnit":"m.s-1","parameterCategory":1,"la1":30.2991,"la2":30.254,"lo1":-89.0895,"lo2":-89.0444,"dy":0.0017,"dx":0.0017,"nx":28,"ny":28,"refTime":"2023-10-13T09:00:00:Z","depth":0,"parameterNumber":2,"parameterNumberName":"U-component_of_WINDS"},"data":[0,0,0,0,0,0,0,0,0,0,0,0,0,0,0,0,0,0,0,0,0,0,0,0,0,0,0,0,0,0,0,0,0,0,0,0,0,0,0,0,0,0,0,0,0,0,0,0,0,0,0,0,0,0,0,0,0,0,4.4924,4.4925,0,4.4974,4.4975,4.4975,4.4959,4.4958,4.4957,4.4956,4.5008,4.5011,4.5013,0,0,0,0,0,0,0,0,0,0,0,0,0,4.4818,4.482,4.4924,4.4925,4.4925,4.4974,4.4975,4.4975,4.4959,4.4958,4.4957,4.4955,4.5008,4.501,4.5013,0,0,0,0,0,0,0,0,0,0,0,0,0,4.4866,4.4821,4.4924,4.4923,4.4924,4.4974,4.4975,4.4976,4.496,4.4958,4.4956,4.4955,4.5007,4.501,4.5014,4.5068,0,0,4.5025,4.5026,0,0,0,0,0,0,0,0,4.4863,4.487,4.4923,4.4923,4.4924,4.4959,4.4957,4.5007,4.496,4.4946,4.4956,4.4954,4.4993,4.4998,4.5011,4.5071,4.5073,4.5025,4.5027,4.5029,4.503,0,0,0,0,0,0,0,4.486,4.4868,4.4944,4.4923,4.4924,4.4922,4.4926,4.4966,4.4978,4.4947,4.4946,4.4952,4.4993,4.5007,4.5012,4.5074,4.5025,4.5028,4.503,4.5032,4.5186,4.5188,0,0,0,0,0,0,4.4856,4.4865,4.4942,4.4945,4.4889,4.4925,4.493,4.4949,4.4978,4.498,4.4953,4.4951,4.5002,4.5008,4.5014,4.5083,4.5029,4.5032,4.5034,4.5185,4.5187,4.5189,0,0,0,0,0,0,4.4854,4.4863,4.494,4.4905,4.4915,4.4928,4.495,4.4951,4.4965,4.4982,4.4985,4.4965,4.5001,4.5009,4.5056,4.5085,4.5034,4.5037,4.5182,4.5185,4.5188,4.522,0,0,0,0,0,0,4.4851,4.4862,4.4882,4.4906,4.4917,4.4981,4.4951,4.4953,4.4971,4.4969,4.4994,4.4997,4.5,4.5051,4.506,4.5089,4.504,4.518,4.5184,4.5187,4.5217,4.5224,4.523,0,0,0,0,0,4.4847,4.4888,4.4883,4.4892,4.4941,4.4982,4.4989,4.4991,4.4973,4.4995,4.5006,4.4996,4.508,4.5056,4.5065,4.5096,4.5178,4.5183,4.5187,4.5214,4.5222,4.523,0,0,0,0,0,0,4.4867,4.4891,4.4886,4.4935,4.4957,4.4979,4.5005,4.5,4.5027,4.5023,4.5026,4.5032,4.5081,4.5093,4.5066,4.5153,4.5126,4.5133,4.5144,4.5152,4.5159,4.5155,4.5043,0,0,0,0,0,4.4877,4.4907,4.4927,4.4969,4.498,4.4991,4.5009,4.501,4.5032,4.5041,4.5056,4.5079,4.5111,4.5132,4.5162,4.5218,4.5226,4.5244,4.5251,4.5256,4.5263,4.5298,4.5308,4.5203,4.5203,4.5203,0,0,4.4898,4.4915,4.4934,4.4974,4.499,4.5024,4.4999,4.5034,4.5059,4.5046,4.5093,4.5105,4.5131,4.5185,4.5209,4.5196,4.5293,4.5262,4.5266,4.527,4.5303,4.5313,4.5322,4.5206,4.5206,4.5205,0,0,4.4955,4.4969,4.5008,4.5026,4.5052,4.506,4.5069,4.5093,4.5102,4.5148,4.5141,4.5171,4.5225,4.5245,4.5263,4.5331,4.5325,4.5341,4.5376,4.5411,4.5419,4.5426,4.5454,4.5464,4.5347,4.5347,4.5347,0,4.4978,4.5027,4.5028,4.5066,4.5085,4.5076,4.5117,4.5134,4.5169,4.5183,4.5168,4.5239,4.5255,4.5315,4.5333,4.5346,4.5359,4.5339,4.5417,4.5425,4.5432,4.5459,4.5469,4.5349,4.5349,4.5349,4.5348,0,4.5056,4.509,4.5119,4.5154,4.5176,4.5215,4.5225,4.5247,4.5247,4.5257,4.5307,4.5327,4.5363,4.5377,4.5376,4.5438,4.543,4.5416,4.539,4.5444,4.5469,4.5479,4.5352,4.5351,4.5351,4.535,0,0,4.5125,4.5163,4.5174,4.5192,4.5222,4.5249,4.5289,4.5324,4.5346,4.537,4.5406,4.5454,4.5443,4.5462,4.5464,4.5494,4.5552,4.5477,4.5478,4.5493,4.5627,4.5639,4.565,4.5547,4.5549,4.5551,4.5626,0,4.5186,4.5256,4.5261,4.5324,4.5359,4.5352,4.5388,4.5411,4.5422,4.5454,4.5466,4.5502,4.5482,4.5495,4.5524,4.5539,4.5579,4.5533,4.5583,4.5585,4.5579,4.5663,4.5675,4.5745,4.5635,4.5637,4.5638,0,4.5266,4.5296,4.5364,4.5393,4.5407,4.5439,4.5474,4.5503,4.5531,4.5538,4.5562,4.5561,4.5604,4.5576,4.5638,4.5607,4.5628,4.5639,4.5642,4.5648,4.5616,4.5675,4.5767,4.5778,4.5653,4.5652,4.5651,0,4.5315,4.5371,4.542,4.5434,4.5468,4.5492,4.5507,4.5533,4.5556,4.5587,4.5603,4.5638,4.5658,4.5687,4.5697,4.5674,4.576,4.5731,4.5769,4.577,4.5789,4.5788,4.5888,4.5798,4.5798,4.5798,4.5798,0,4.5384,4.5426,4.5442,4.5472,4.5521,4.5527,4.5576,4.559,4.5614,4.5649,4.5645,4.5678,4.5687,4.5723,4.573,4.5783,4.5791,4.58,4.5802,4.5802,4.5801,4.5817,4.5814,4.5801,4.58,4.5799,4.5799,0,4.5446,4.5458,4.5511,4.554,4.5549,4.5584,4.561,4.564,4.5652,4.5696,4.5707,4.5725,4.5767,4.578,4.5829,4.5835,4.5898,4.5894,4.5889,4.589,4.5928,4.5926,4.6045,4.6062,4.5958,4.5958,4.5959,0,4.5491,4.5524,4.5557,4.558,4.5597,4.5634,4.5658,4.5666,4.5691,4.5728,4.5755,4.5796,4.583,4.5898,4.5917,4.5956,4.5955,4.5994,4.5961,4.5962,4.596,4.5959,4.5965,4.6001,4.6002,4.6003,4.6004,0,4.557,4.5576,4.5609,4.5647,4.5676,4.5705,4.5734,4.5753,4.5766,4.5795,4.5838,4.5865,4.5917,4.596,4.6001,4.6018,4.6015,4.6014,4.6026,4.6027,4.6024,4.603,4.5909,4.6012,4.6011,4.601,4.601,4.6009,4.5628,4.5658,4.5688,4.5727,4.575,4.5778,4.5809,4.5825,4.5861,4.5905,4.5908,4.5956,4.5987,4.6041,4.6061,4.6101,4.6089,4.6105,4.611,4.6114,4.6119,4.6016,4.6108,4.6107,4.6107,4.6107,4.6107,0,4.571,4.5729,4.5765,4.5807,4.5839,4.5832,4.5864,4.5892,4.5934,4.5963,4.5997,4.6049,4.6091,4.6114,4.6157,4.6185,4.6184,4.6196,4.6195,4.6201,4.6125,4.6112,4.6196,4.6196,4.6196,4.6196,4.6196,4.6196,4.5757,4.581,4.5819,4.5885,4.5904,4.5951,4.5971,4.5997,4.6021,4.6079,4.6115,4.6129,4.6157,4.6203,4.6243,4.6249,4.6266,4.628,4.6285,4.6214,4.6205,4.6197,4.6185,4.6282,4.6283,4.6358,4.6358,4.6359]},{"header":{"parameterUnit":"m.s-1","parameterCategory":1,"la1":30.2991,"la2":30.254,"lo1":-89.0895,"lo2":-89.0444,"dy":0.0017,"dx":0.0017,"nx":28,"ny":28,"refTime":"2023-10-13T09:00:00:Z","depth":0,"parameterNumber":3,"parameterNumberName":"V-component_of_WINDS"},"data":[0,0,0,0,0,0,0,0,0,0,0,0,0,0,0,0,0,0,0,0,0,0,0,0,0,0,0,0,0,0,0,0,0,0,0,0,0,0,0,0,0,0,0,0,0,0,0,0,0,0,0,0,0,0,0,0,0,0,-1.7313,-1.7313,0,-1.7247,-1.7246,-1.7245,-1.728,-1.7282,-1.7283,-1.7285,-1.721,-1.7206,-1.7203,0,0,0,0,0,0,0,0,0,0,0,0,0,-1.7466,-1.7463,-1.7313,-1.7313,-1.7312,-1.7247,-1.7246,-1.7245,-1.728,-1.7282,-1.7284,-1.7286,-1.7211,-1.7207,-1.7202,0,0,0,0,0,0,0,0,0,0,0,0,0,-1.7399,-1.7462,-1.7314,-1.7321,-1.7321,-1.7247,-1.7246,-1.7245,-1.7279,-1.7282,-1.7284,-1.7287,-1.7213,-1.7207,-1.7202,-1.7114,0,0,-1.7185,-1.7183,0,0,0,0,0,0,0,0,-1.7403,-1.7394,-1.7321,-1.7321,-1.7321,-1.7274,-1.7272,-1.72,-1.7278,-1.7295,-1.7285,-1.7288,-1.7229,-1.7222,-1.7203,-1.711,-1.7107,-1.7185,-1.7181,-1.7179,-1.7177,0,0,0,0,0,0,0,-1.7408,-1.7397,-1.7287,-1.732,-1.732,-1.7327,-1.732,-1.7259,-1.7247,-1.7294,-1.7296,-1.7288,-1.7229,-1.7209,-1.7202,-1.7106,-1.7185,-1.718,-1.7176,-1.7174,-1.6938,-1.6935,0,0,0,0,0,0,-1.7413,-1.74,-1.7289,-1.7285,-1.737,-1.7322,-1.7314,-1.7286,-1.7248,-1.7245,-1.7286,-1.729,-1.7217,-1.7208,-1.7199,-1.7094,-1.7179,-1.7174,-1.7171,-1.6941,-1.6937,-1.6934,0,0,0,0,0,0,-1.7416,-1.7402,-1.7292,-1.7343,-1.733,-1.7316,-1.7284,-1.7284,-1.7263,-1.7242,-1.724,-1.7267,-1.7219,-1.7207,-1.7136,-1.7092,-1.7171,-1.7166,-1.6944,-1.694,-1.6936,-1.6883,0,0,0,0,0,0,-1.742,-1.7403,-1.7371,-1.7342,-1.7327,-1.723,-1.7282,-1.728,-1.7254,-1.7259,-1.7224,-1.7221,-1.722,-1.7144,-1.713,-1.7086,-1.7162,-1.6948,-1.6942,-1.6937,-1.6889,-1.6877,-1.6868,0,0,0,0,0,-1.7425,-1.7357,-1.7369,-1.7355,-1.7286,-1.7227,-1.7218,-1.722,-1.7251,-1.7217,-1.7204,-1.7222,-1.71,-1.7136,-1.7121,-1.7075,-1.6951,-1.6944,-1.6938,-1.6893,-1.688,-1.6868,0,0,0,0,0,0,-1.7377,-1.7353,-1.7366,-1.7287,-1.7259,-1.7234,-1.7191,-1.7206,-1.7167,-1.7173,-1.7175,-1.7167,-1.7093,-1.7077,-1.7118,-1.6988,-1.703,-1.702,-1.7001,-1.6988,-1.6978,-1.6983,-1.7157,0,0,0,0,0,-1.7358,-1.7315,-1.7295,-1.7226,-1.7212,-1.7204,-1.7179,-1.7183,-1.7154,-1.7141,-1.7123,-1.7092,-1.7047,-1.7017,-1.6974,-1.6887,-1.688,-1.6848,-1.6837,-1.6829,-1.682,-1.6773,-1.6759,-1.6912,-1.6912,-1.6912,0,0,-1.7317,-1.7298,-1.727,-1.7216,-1.7196,-1.7149,-1.7194,-1.7142,-1.7107,-1.7133,-1.7065,-1.705,-1.7016,-1.6937,-1.6901,-1.6921,-1.6776,-1.682,-1.6814,-1.6809,-1.6765,-1.6751,-1.6738,-1.6908,-1.6909,-1.6909,0,0,-1.7217,-1.7199,-1.7141,-1.712,-1.7089,-1.7085,-1.7071,-1.7043,-1.7035,-1.6968,-1.6986,-1.6944,-1.6866,-1.6841,-1.6818,-1.6712,-1.6727,-1.6698,-1.6643,-1.6598,-1.6585,-1.6575,-1.6537,-1.6523,-1.6689,-1.6689,-1.6689,0,-1.7169,-1.7101,-1.7108,-1.7056,-1.7032,-1.7056,-1.6997,-1.6975,-1.693,-1.6913,-1.6937,-1.6841,-1.6819,-1.6735,-1.6709,-1.669,-1.6673,-1.6701,-1.6587,-1.6576,-1.6566,-1.653,-1.6516,-1.6686,-1.6686,-1.6686,-1.6687,0,-1.7044,-1.6996,-1.6953,-1.6912,-1.6883,-1.6827,-1.6825,-1.6794,-1.6802,-1.6794,-1.6725,-1.6701,-1.6654,-1.6634,-1.664,-1.6551,-1.6565,-1.6588,-1.6629,-1.6548,-1.6514,-1.6501,-1.6681,-1.6682,-1.6683,-1.6684,0,0,-1.691,-1.6877,-1.686,-1.6843,-1.6812,-1.6774,-1.672,-1.6676,-1.665,-1.6619,-1.6573,-1.6507,-1.6529,-1.6503,-1.6506,-1.6467,-1.6385,-1.6495,-1.6494,-1.6475,-1.6285,-1.6268,-1.6252,-1.6395,-1.6393,-1.6391,-1.6288,0,-1.6809,-1.6715,-1.6721,-1.6632,-1.6589,-1.6612,-1.6565,-1.6539,-1.6531,-1.6492,-1.6482,-1.6436,-1.6469,-1.6453,-1.6416,-1.6403,-1.6346,-1.641,-1.635,-1.6348,-1.6358,-1.6234,-1.6215,-1.6119,-1.6275,-1.6273,-1.6271,0,-1.6677,-1.6645,-1.6553,-1.653,-1.6512,-1.6469,-1.6431,-1.6393,-1.6365,-1.6362,-1.6335,-1.6345,-1.6288,-1.6333,-1.6255,-1.6298,-1.6274,-1.6264,-1.6261,-1.6254,-1.6304,-1.6223,-1.6089,-1.6074,-1.625,-1.6252,-1.6253,0,-1.6589,-1.6522,-1.6459,-1.6443,-1.6415,-1.6384,-1.6371,-1.6346,-1.632,-1.6286,-1.6269,-1.6228,-1.6205,-1.6172,-1.617,-1.6203,-1.6091,-1.6136,-1.6086,-1.6086,-1.606,-1.6062,-1.5919,-1.6046,-1.6046,-1.6047,-1.6047,0,-1.6475,-1.6417,-1.6419,-1.638,-1.6317,-1.6324,-1.626,-1.6249,-1.6227,-1.6185,-1.6203,-1.6163,-1.6164,-1.6122,-1.6121,-1.6056,-1.6046,-1.6041,-1.6041,-1.6039,-1.6039,-1.6022,-1.6029,-1.6043,-1.6044,-1.6044,-1.6045,0,-1.6365,-1.6364,-1.6297,-1.6276,-1.627,-1.6224,-1.6206,-1.6168,-1.6163,-1.611,-1.6098,-1.6088,-1.6041,-1.6037,-1.5982,-1.5981,-1.5903,-1.591,-1.5913,-1.5914,-1.5864,-1.5869,-1.5705,-1.5684,-1.5825,-1.5824,-1.5823,0,-1.6291,-1.6248,-1.6225,-1.6199,-1.6185,-1.6143,-1.6118,-1.6123,-1.6096,-1.6062,-1.6028,-1.5983,-1.5948,-1.5871,-1.5858,-1.5816,-1.5822,-1.5768,-1.5816,-1.5816,-1.5821,-1.5824,-1.5819,-1.5758,-1.5757,-1.5755,-1.5754,0,-1.6161,-1.6164,-1.6128,-1.6092,-1.6062,-1.6033,-1.6007,-1.5984,-1.5986,-1.5954,-1.5908,-1.5881,-1.5826,-1.5781,-1.574,-1.5725,-1.5739,-1.574,-1.5726,-1.5723,-1.5726,-1.5724,-1.5887,-1.5743,-1.5744,-1.5745,-1.5746,-1.5746,-1.6067,-1.6031,-1.6009,-1.5968,-1.595,-1.5925,-1.5889,-1.5881,-1.5843,-1.58,-1.5805,-1.5754,-1.5728,-1.5675,-1.5657,-1.5615,-1.5633,-1.5613,-1.5608,-1.5603,-1.5598,-1.5734,-1.5608,-1.5608,-1.5608,-1.5609,-1.5609,0,-1.5938,-1.5926,-1.5889,-1.5853,-1.5821,-1.5841,-1.5813,-1.5784,-1.5739,-1.5715,-1.5681,-1.5628,-1.5585,-1.557,-1.5528,-1.5498,-1.5503,-1.5486,-1.5488,-1.5484,-1.5584,-1.56,-1.5483,-1.5483,-1.5483,-1.5483,-1.5483,-1.5483,-1.5867,-1.5807,-1.5807,-1.5737,-1.5725,-1.5676,-1.5659,-1.5636,-1.5617,-1.5558,-1.5523,-1.5515,-1.5494,-1.5451,-1.5412,-1.5409,-1.5392,-1.5372,-1.5371,-1.5465,-1.5477,-1.5489,-1.5504,-1.5369,-1.5368,-1.5275,-1.5274,-1.5273]}]]